METAR Formatted Surface Weather Observation
Issued by NWS

Home | Current Version | Previous Version | Text Only | Print | Product List | Glossary On
Versions: 1 2 3 4 5 6 7 8 9 10 11 12 13 14 15 16 17 18 19 20 21 22 23 24 25 26 27 28 29 30 31 32 33 34 35 36 37 38 39 40 41 42 43 44 45 46 47 48 49 50
555
SAUS46 KPQR 191753
MTRREO
METAR KREO 191752Z AUTO 20022G28KT 08/M04 A2960 RMK AO1 PK WND
20034/1716 SLP020 T00831039 10089 20017 51019 $



USA.gov is the U.S. government's official web portal to all federal, state and local government web resources and services.